Location: Newark
(40.7060°N, 73.9980°W)
Time: 18:09:23
(UTC+00:00)

Envisat - Visible Passes

Search period start: 21 November 2019 00:00
Search period end: 01 December 2019 00:00
Orbit: 764 x 766 km, 98.1° (Epoch: 21 November)

Date Brightness Start Highest point End Pass type
(mag) Time Alt. Az. Time Alt. Az. Time Alt. Az.
21 Nov 2.9 22:42:44 10° SSE 22:47:46 68° ENE 22:52:50 10° N visible
22 Nov 6.0 00:24:48 10° WSW 00:27:16 14° W 00:29:44 10° WNW visible
22 Nov 5.6 10:52:36 10° NE 10:56:41 24° E 11:00:44 10° SSE visible
22 Nov 3.7 22:06:46 10° SE 22:11:12 31° ENE 22:15:38 10° N visible
22 Nov 4.8 23:45:43 10° SSW 23:50:09 30° W 23:54:37 10° NW visible
23 Nov 6.6 10:19:02 10° E 10:19:30 10° E 10:19:59 10° E visible
23 Nov 3.3 23:08:12 10° S 23:13:15 69° WSW 23:18:20 10° NNW visible
24 Nov 4.5 11:17:31 10° NNE 11:22:20 42° E 11:27:07 10° S visible
24 Nov 3.1 22:31:37 10° SSE 22:36:32 54° ENE 22:41:29 10° N visible
25 Nov 5.7 00:12:33 10° SW 00:15:52 17° W 00:19:12 10° NW visible
25 Nov 5.9 10:41:44 10° NE 10:45:19 19° E 10:48:52 10° SE visible
25 Nov 4.0 21:55:56 10° ESE 22:00:01 25° ENE 22:04:06 10° NNE visible
25 Nov 4.4 23:34:07 10° SSW 23:38:49 38° W 23:43:34 10° NNW visible
26 Nov 3.0 22:56:53 10° SSE 23:01:58 87° WSW 23:07:05 10° NNW visible
27 Nov 5.0 11:06:26 10° NNE 11:11:00 33° E 11:15:33 10° SSE visible
27 Nov 3.3 22:20:33 10° SE 22:25:19 42° ENE 22:30:05 10° N visible
28 Nov 5.4 00:00:36 10° SW 00:04:29 22° W 00:08:24 10° NW visible
28 Nov 6.1 10:31:05 10° NE 10:33:55 15° E 10:36:45 10° SE visible
28 Nov 3.9 23:22:36 10° S 23:27:30 49° W 23:32:26 10° NNW visible
29 Nov 2.9 22:45:39 10° SSE 22:50:42 75° ENE 22:55:48 10° N visible
30 Nov 6.1 00:28:16 10° WSW 00:30:16 12° W 00:32:15 10° WNW visible
30 Nov 5.4 10:55:25 10° NE 10:59:39 26° E 11:03:53 10° SSE visible
30 Nov 3.6 22:09:35 10° SE 22:14:06 34° ENE 22:18:39 10° N visible
30 Nov 5.0 23:48:49 10° SSW 23:53:07 28° W 23:57:28 10° NW visible
